Starlink 31967

operational
NORAD ID: 60021 Int'l Des: 2024-111 Owner: SPXS Country: US Constellation: starlink
LEOCIRCULAR

Starlink 31967について

説明を読み込み中...

リアルタイム位置

3D地球を読み込み中...

次回通過

高度履歴

Altitude vs Time

uPlot chart will show altitude changes over time

軌道要素

1 60021U 24111F 25352.28212801 .00000518 00000-0 29618-4 0 9993
2 60021 53.1603 93.4708 0001284 84.9092 275.2055 15.30185624 86585
Epoch: Dec 18, 2025 • Age: 13 hours

現在のステータス

高度 480.6 km
速度 7.63 km/s
衛星直下点 51.66°N, 176.57°E
打ち上げ日 Jun 8, 2024
運用期間 1.5 years
タイプ internet

技術仕様

分類 Payload
質量 730.00 kg
乾燥質量 700.00 kg
総質量 730.00 kg
長さ 0.30 m
直径 4.10 m
スパン 29.00 m
形状 Box + pan
製造者 SPXS
バスタイプ Starlink V2M
フェーズステータス In Orbit
所有者/国 SPXS/US

大規模コンステレーション

Loading constellations...